Location: Newark
(43.4306°N, 0.3089°E)
Time: 18:52:24
(UTC+00:00)

S-56A Canister/Altair - Pass Details

Date: 26 August 2019
Orbit: 633 x 2499 km, 38.9° (Epoch: 17 September)

Event Time Altitude Azimuth Distance (km) Brightness Sun altitude
Rises 19:55:49 0° 239° (WSW) 3,668 11.5 -12.8°
Reaches altitude 10° 19:58:55 10° 231° (SW) 2,484 10.4 -13.3°
Maximum altitude 20:03:58 36° 166° (SSE) 1,111 8.0 -14.1°
Enters shadow 20:06:09 23° 116° (ESE) 1,404 8.2 -14.4°
Drops below altitude 10° 20:08:07 10° 98° (E) 2,036 - -14.7°
Sets 20:10:25 0° 90° (E) 2,919 - -15.1°
